Location: Banksville Park
(38.5557°N, 75.1182°W)
Time: 18:19:46
(UTC+00:00)

SAR-Lupe-1 - Pass Details

Date: 26 January 2021
Orbit: 482 x 484 km, 98.2° (Epoch: 02 March)

Event Time Altitude Azimuth Distance (km) Brightness Sun altitude
Rises 11:00:22 0° 177° (S) 2,532 7.9 -13.9°
Reaches altitude 10° 11:02:28 10° 183° (S) 1,657 6.9 -13.5°
Maximum altitude 11:05:55 49° 260° (W) 631 4.2 -12.8°
Drops below altitude 10° 11:09:25 10° 336° (NNW) 1,670 6.4 -12.2°
Enters shadow 11:10:22 - 339° (NNW) 2,067 6.9 -12.0°
